This demonstration page uses our WeatherBlox Daily Observations layout. Learn more.

Left ArrowRight Arrow

39.51506, -84.39828

Hourly Observations for June 23, 2019

Temp ( °F °C ) Dew Point ( °F °C ) Humidity (%) Winds ( mph kmh ) Pressure ( in mb ) Visibility ( mi km ) Precip ( " mm )
12:15 am 00:15 Clear 62 16.5 60 15.6 94 94 N N/A 30.09 1019 10 16 N/A
12:35 am 00:35 Clear 61 16.1 60 15.5 96 96 N N/A 30.09 1019 10 16 N/A
12:55 am 00:55 Clear 61 15.9 60 15.3 96 96 N N/A 30.09 1019 10 16 N/A
1:15 am 01:15 Clear 61 15.9 60 15.3 96 96 N N/A 30.09 1019 10 16 N/A
1:35 am 01:35 Clear 60 15.7 59 15.2 97 97 NW 3 6 30.09 1019 10 16 N/A
1:55 am 01:55 Clear 60 15.4 59 14.9 97 97 NW 3 6 30.09 1019 10 16 N/A
2:15 am 02:15 Clear 59 15.2 58 14.7 97 97 N N/A 30.09 1019 10 16 N/A
2:35 am 02:35 Clear 60 15.3 59 14.8 97 97 NW 3 6 30.09 1019 10 16 N/A
2:55 am 02:55 Clear 60 15.6 59 15.1 97 97 NNE 5 7 30.09 1019 10 16 N/A
3:15 am 03:15 Clear 60 15.8 59 15.2 96 96 N N/A 30.08 1019 10 16 N/A
3:35 am 03:35 Clear 59 15.2 58 14.7 97 97 N 3 6 30.09 1019 10 16 N/A
3:55 am 03:55 Clear 59 14.9 58 14.5 97 97 N N/A 30.09 1019 10 16 N/A
4:15 am 04:15 Clear 59 15.1 58 14.6 97 97 N N/A 30.10 1019 10 16 N/A
4:35 am 04:35 Clear 58 14.6 58 14.2 97 97 N N/A 30.09 1019 10 16 N/A
4:55 am 04:55 Clear 58 14.6 58 14.2 97 97 N N/A 30.09 1019 10 16 N/A
5:15 am 05:15 Clear 58 14.5 57 14.1 97 97 N N/A 30.08 1019 10 16 N/A
5:35 am 05:35 Clear 58 14.5 57 14.1 97 97 NNW 3 6 30.07 1018 10 16 N/A
5:55 am 05:55 Clear 58 14.4 57 14 97 97 NNW 3 6 30.06 1018 10 16 N/A
6:15 am 06:15 Sunny 58 14.6 58 14.2 97 97 N N/A 30.07 1018 10 16 N/A
6:35 am 06:35 Sunny 59 15.1 58 14.6 97 97 N 3 6 30.07 1018 10 16 N/A
6:55 am 06:55 Sunny 60 15.3 59 14.8 97 97 N 3 6 30.07 1018 10 16 N/A
7:15 am 07:15 Sunny 61 16 59 15.2 95 95 N 3 6 30.07 1018 10 16 N/A
7:35 am 07:35 Sunny 62 16.9 60 15.7 93 93 N N/A 30.06 1018 10 16 N/A
7:55 am 07:55 Sunny 65 18.1 61 15.9 87 87 ENE 3 6 30.06 1018 10 16 N/A
8:15 am 08:15 Sunny 66 19 61 16.1 83 83 NE 3 6 30.06 1018 10 16 N/A
8:35 am 08:35 Sunny 69 20.4 62 16.5 78 78 NE 3 6 30.05 1018 10 16 N/A
8:55 am 08:55 Sunny 70 21.1 61 16.3 74 74 N N/A 30.06 1018 10 16 N/A
9:15 am 09:15 Sunny 72 22.2 58 14.2 61 61 SSE 7 11 30.05 1018 10 16 N/A
9:35 am 09:35 Sunny 73 22.7 57 13.8 57 57 SE 7 11 30.04 1017 10 16 N/A
9:55 am 09:55 Sunny 73 22.7 57 14.1 58 58 SE 6 9 30.03 1017 10 16 N/A
10:15 am 10:15 Sunny 74 23.5 56 13.4 53 53 SE 9 15 30.03 1017 10 16 N/A
10:35 am 10:35 Sunny 74 23.5 57 14.1 56 56 SE 6 9 30.02 1016 10 16 N/A
10:55 am 10:55 Sunny 74 23.6 56 13.1 52 52 SE 12 19 30.00 1016 10 16 N/A
11:15 am 11:15 Sunny 76 24.6 57 14 52 52 SE 12 19 29.98 1015 10 16 N/A
11:35 am 11:35 Sunny 76 24.7 57 14 51 51 SE 10 17 29.97 1015 10 16 N/A
11:55 am 11:55 Sunny 76 24.5 57 14 52 52 SSE 10 17 29.99 1016 10 16 N/A
12:15 pm 12:15 Sunny 75 24 58 14.4 55 55 SSE 8 13 30.00 1016 10 16 N/A
12:35 pm 12:35 Sunny 77 24.9 60 15.3 55 55 S 9 15 29.99 1016 10 16 N/A
12:55 pm 12:55 Sunny 77 25.1 60 15.6 56 56 SE 10 17 29.98 1015 10 16 N/A
1:15 pm 13:15 Sunny 78 25.3 61 16.1 57 57 S 10 17 29.98 1015 10 16 N/A
1:35 pm 13:35 Sunny 78 25.7 62 16.8 58 58 S 10 17 29.98 1015 10 16 N/A
1:55 pm 13:55 Sunny 79 26.1 63 17.2 58 58 SSE 7 11 29.98 1015 10 16 N/A
2:15 pm 14:15 Sunny 80 26.7 65 18.2 60 60 SSW 7 11 29.97 1015 10 16 N/A
2:35 pm 14:35 Sunny 81 27 66 18.9 61 61 SSW 10 17 29.96 1015 10 16 N/A
2:55 pm 14:55 Sunny 81 27.2 67 19.5 63 63 SSE 10 17 29.95 1014 10 16 N/A
3:15 pm 15:15 Sunny 82 28 69 20.5 64 64 SSE 10 17 29.95 1014 10 16 N/A
3:35 pm 15:35 Sunny 82 27.5 68 20 64 64 SSW 9 15 29.94 1014 10 16 N/A
3:55 pm 15:55 Sunny 83 28.5 69 20.6 62 62 SSW 9 15 29.92 1013 10 16 N/A
4:15 pm 16:15 Partly Cloudy 83 28.4 69 20.5 62 62 S 10 17 29.92 1013 10 16 N/A
4:35 pm 16:35 Partly Cloudy 83 28.1 69 20.7 64 64 SSW 9 15 29.90 1012 10 16 N/A
4:55 pm 16:55 Mostly Cloudy 83 28.5 69 20.5 62 62 S 9 15 29.90 1012 10 16 N/A
5:15 pm 17:15 Mostly Cloudy 82 27.5 69 20.8 67 67 SSW 6 9 29.90 1012 10 16 N/A
5:35 pm 17:35 Cloudy with Light Rain 78 25.4 71 21.8 81 81 S 5 7 29.90 1013 7 11 0.04 1.02
5:55 pm 17:55 Mostly Cloudy 80 26.5 74 23.2 82 82 N N/A 29.89 1012 10 16 0.04 1.02
6:15 pm 18:15 Mostly Cloudy with Nearby Thunderstorms 78 25.3 75 23.7 91 91 N N/A 29.89 1012 10 16 N/A
6:35 pm 18:35 Cloudy with Thunderstorms 72 22.2 69 20.3 89 89 SW 9 15 29.92 1013 10 16 0.06 1.52
6:55 pm 18:55 Cloudy 71 21.4 68 19.8 91 91 SSW 5 7 29.91 1013 10 16 0.07 1.78
7:15 pm 19:15 Cloudy with Light Rain 71 21.4 68 19.8 91 91 SSE 6 9 29.90 1013 10 16 0.01 0.25
7:35 pm 19:35 Partly Cloudy with Light Rain 71 21.4 68 20 92 92 S 5 7 29.89 1012 10 16 0.01 0.25
7:55 pm 19:55 Mostly Cloudy 71 21.4 68 19.9 91 91 ESE 8 13 29.88 1012 10 16 0.01 0.25
8:15 pm 20:15 Sunny 70 21.1 68 19.8 92 92 N N/A 29.88 1012 10 16 N/A
8:35 pm 20:35 Sunny 70 21 67 19.6 92 92 E 3 6 29.86 1011 10 16 N/A
8:55 pm 20:55 Sunny 70 20.9 67 19.7 93 93 ESE 6 9 29.85 1011 10 16 N/A
9:15 pm 21:15 Clear 69 20.8 67 19.5 92 92 ESE 5 7 29.84 1011 10 16 N/A
9:35 pm 21:35 Clear 69 20.6 67 19.2 92 92 S 5 7 29.84 1011 10 16 N/A
9:55 pm 21:55 Clear 69 20.5 67 19.2 92 92 S 6 9 29.84 1011 10 16 N/A
10:15 pm 22:15 Clear 69 20.4 66 19.1 92 92 S 3 6 29.85 1011 10 16 N/A
10:35 pm 22:35 Clear 69 20.4 66 19 92 92 S 10 17 29.87 1012 10 16 N/A
10:55 pm 22:55 Clear 68 20.2 66 19 93 93 S 6 9 29.86 1011 10 16 N/A
11:15 pm 23:15 Clear 68 20.2 67 19.2 94 94 SE 5 7 29.85 1011 10 16 N/A
11:35 pm 23:35 Partly Cloudy 68 20 66 19.1 95 95 SSE 5 7 29.84 1011 10 16 N/A
11:55 pm 23:55 Partly Cloudy 68 20.2 67 19.3 95 95 SSW 5 7 29.85 1011 10 16 N/A

Powered by AerisWeather